Millville, NJ

10:44 PM EST on February 25, 2018 (GMT -0500)
Millville Municipal

Weather History for KMIV - March, 2014

Change the Weather History Date:

Tuesday, March 11, 2014

  Actual Average Record
Temperature  
Mean Temperature 50 °F -  
Max Temperature 64 °F 52 °F 73 °F (1967)
Min Temperature 35 °F 29 °F 12 °F (2003)
Degree Days  
Heating Degree Days 16    
Moisture  
Dew Point 35 °F    
Average Humidity 63    
Maximum Humidity 85    
Minimum Humidity 39    
Precipitation  
Precipitation 0.00 in - - ()
Sea Level Pressure  
Sea Level Pressure 29.67 in    
Wind  
Wind Speed 4 mph (WSW)    
Max Wind Speed 9 mph    
Max Gust Speed -    
Visibility 10 miles    
Events      
Averages and records for this station are not official NWS values.
T = Trace of Precipitation, MM = Missing Value Source: NWS Daily Summary

Daily Weather History Graph

Daily Weather History Graph

Search for Another Location

Airport or City:

Trip Planner

Search our weather history database for the weather conditions in past years. The results will help you decide how hot, cold, wet, or windy it might be!

Date:

Astronomy

Mar. 11, 2014 Rise Set
Actual Time 7:17 AM EDT 7:03 PM EDT
Civil Twilight 6:51 AM EDT 7:29 PM EDT
Nautical Twilight 6:20 AM EDT 8:01 PM EDT
Astronomical Twilight 5:48 AM EDT 8:32 PM EDT
Moon 2:38 PM EDT (3/11) 4:08 AM EDT (3/11)
Length of Visible Light 12h 38m
Length of Day
11h 45m
Waxing Gibbous, 78% of the Moon is Illuminated
Mar 11
Waxing Gibbous
Mar 16
Full
Mar 23
Last Quarter
Mar 30
New
Apr 7
First Quarter

Hourly Weather History & Observations

Time (EDT) Temp. Windchill Dew Point Humidity Pressure Visibility Wind Dir Wind Speed Gust Speed Precip Events Conditions
12:54 AM 42.1 °F 39.2 °F 30.9 °F 65% 29.64 in 10.0 mi SSW 4.6 mph - N/A   Clear
1:54 AM 43.0 °F 40.3 °F 30.9 °F 62% 29.63 in 10.0 mi SW 4.6 mph - N/A   Clear
2:54 AM 42.1 °F 40.2 °F 32.0 °F 67% 29.63 in 10.0 mi SW 3.5 mph - N/A   Clear
3:54 AM 39.0 °F 36.8 °F 30.9 °F 73% 29.62 in 10.0 mi West 3.5 mph - N/A   Clear
4:54 AM 35.1 °F 32.2 °F 30.9 °F 85% 29.62 in 10.0 mi WSW 3.5 mph - N/A   Clear
5:54 AM 41.0 °F 38.0 °F 32.0 °F 70% 29.64 in 10.0 mi West 4.6 mph - N/A   Clear
6:54 AM 45.0 °F 41.8 °F 32.0 °F 60% 29.65 in 10.0 mi West 5.8 mph - N/A   Clear
7:54 AM 46.0 °F - 33.1 °F 61% 29.68 in - North - - N/A   Unknown
8:54 AM - - - N/A% 29.69 in - North - - N/A   Unknown
9:54 AM - - - N/A% 29.71 in - North - - N/A   Unknown
10:54 AM - - - N/A% 29.70 in - North - - N/A   Unknown
11:54 AM - - - N/A% 29.68 in - North - - N/A   Unknown
12:54 PM - - - N/A% 29.69 in - North - - N/A   Unknown
1:54 PM - - - N/A% 29.68 in - North - - N/A   Unknown
2:54 PM - - - N/A% 29.66 in - North - - N/A   Unknown
3:54 PM - - - N/A% 29.65 in - North - - N/A   Unknown
4:54 PM 64.9 °F - 39.9 °F 40% 29.65 in 10.0 mi WNW 9.2 mph - N/A   Unknown
5:54 PM 64.9 °F - 39.0 °F 39% 29.66 in 10.0 mi West 9.2 mph - N/A   Clear
6:54 PM 57.9 °F - 39.0 °F 49% 29.67 in 10.0 mi Calm Calm - N/A   Clear
7:54 PM 55.9 °F - 39.0 °F 53% 29.69 in 10.0 mi South 3.5 mph - N/A   Clear
8:54 PM 50.0 °F - 39.0 °F 66% 29.70 in 10.0 mi Calm Calm - N/A   Clear
9:54 PM 45.0 °F - 37.0 °F 74% 29.70 in 10.0 mi Calm Calm - N/A   Clear
10:54 PM 39.9 °F - 35.1 °F 83% 29.70 in 10.0 mi Calm Calm - N/A   Clear
11:54 PM 45.0 °F - 35.1 °F 68% 29.68 in 10.0 mi Calm Calm - N/A   Clear